KI4SSU Weather Reports


Display with metric or nautical units.
time (UTC)temp
F
wind
direction
speed
MPH
gust
MPH
rain 1hr
in
rain 24hr
in
rain mn
in
humidity
%
barometer
mb
20260830201938 104 82 2.0 4.0 0.00 0.00 0.00
20260830195938 103 165 5.0 7.0 0.00 0.00 0.00
20260830195439 104 176 1.0 3.0 0.00 0.00 0.00
20260830194439 103 63 4.0 4.0 0.00 0.00 0.00
20260830193939 101 290 5.0 3.0 0.00 0.00 0.00
20260830191053 105 259 6.0 5.0 0.00 0.00 0.00
20260830190939 105 259 6.0 5.0 0.00 0.00 0.00
20260830190439 105 200 6.0 4.0 0.00 0.00 0.00
20260830190050 104 59 5.0 8.0 0.00 0.00 0.00
20260830185939 104 59 5.0 8.0 0.00 0.00 0.00
20260830185045 105 42 3.0 4.0 0.00 0.00 0.00
20260830184939 105 42 3.0 4.0 0.00 0.00 0.00
20260830181028 104 6 3.0 4.0 0.00 0.00 0.00
20260830180939 104 6 3.0 4.0 0.00 0.00 0.00
20260830180024 103 239 4.0 3.0 0.00 0.00 0.00
20260830175939 103 239 4.0 3.0 0.00 0.00 0.00
20260830175622 101 69 6.0 3.0 0.00 0.00 0.00
20260830175439 101 69 6.0 3.0 0.00 0.00 0.00
20260830175020 101 0 4.0 3.0 0.00 0.00 0.00
20260830174939 101 0 4.0 3.0 0.00 0.00 0.00
20260830174016 100 55 4.0 5.0 0.00 0.00 0.00
20260830173939 100 55 4.0 5.0 0.00 0.00 0.00
20260830173614 101 146 4.0 6.0 0.00 0.00 0.00
20260830173439 101 146 4.0 6.0 0.00 0.00 0.00
20260830173012 100 175 5.0 8.0 0.00 0.00 0.00
20260830172938 100 175 5.0 8.0 0.00 0.00 0.00
20260830172610 100 21 2.0 1.0 0.00 0.00 0.00
20260830172439 100 21 2.0 1.0 0.00 0.00 0.00
20260830170939 101 118 2.0 1.0 0.00 0.00 0.00
20260830170531 100 218 2.0 6.0 0.00 0.00 0.00
20260830170439 100 218 2.0 6.0 0.00 0.00 0.00
20260830165438 101 234 5.0 4.0 0.00 0.00 0.00
20260830164939 99 53 4.0 11.0 0.00 0.00 0.00
20260830164439 99 245 7.0 10.0 0.00 0.00 0.00
20260830162939 98 106 3.0 3.0 0.00 0.00 0.00
20260830162439 97 79 4.0 3.0 0.00 0.00 0.00
20260830161939 97 8 4.0 4.0 0.00 0.00 0.00
20260830161439 97 222 5.0 6.0 0.00 0.00 0.00
20260830160939 96 214 4.0 5.0 0.00 0.00 0.00
20260830160439 96 222 4.0 6.0 0.00 0.00 0.00
20260830155939 95 231 6.0 7.0 0.00 0.00 0.00
20260830155439 94 90 6.0 8.0 0.00 0.00 0.00
20260830154938 95 58 5.0 7.0 0.00 0.00 0.00
20260830154439 95 41 3.0 2.0 0.00 0.00 0.00
20260830153939 94 131 2.0 4.0 0.00 0.00 0.00
20260830153439 94 203 5.0 5.0 0.00 0.00 0.00
20260830152939 94 35 4.0 3.0 0.00 0.00 0.00
20260830151439 91 248 2.0 2.0 0.00 0.00 0.00
20260830150939 91 227 6.0 5.0 0.00 0.00 0.00
20260830150439 91 266 3.0 4.0 0.00 0.00 0.00
20260830145940 91 241 4.0 7.0 0.00 0.00 0.00
20260830145440 90 101 1.0 1.0 0.00 0.00 0.00
20260830144940 90 265 5.0 7.0 0.00 0.00 0.00
20260830144440 89 237 5.0 5.0 0.00 0.00 0.00
20260830143440 89 241 3.0 3.0 0.00 0.00 0.00
20260830142940 89 193 5.0 7.0 0.00 0.00 0.00
20260830141940 87 273 3.0 2.0 0.00 0.00 0.00
20260830141440 86 52 3.0 2.0 0.00 0.00 0.00
20260830140940 86 97 4.0 3.0 0.00 0.00 0.00
20260830140440 85 258 3.0 2.0 0.00 0.00 0.00
20260830134940 84 37 2.0 2.0 0.00 0.00 0.00
20260830124940 81 211 1.0 0.0 0.00 0.00 0.00
20260830123940 80 218 1.0 1.0 0.00 0.00 0.00
20260830121940 79 221 0.0 0.0 0.00 0.00 0.00
20260830121440 79 203 0.0 1.0 0.00 0.00 0.00
20260830120440 78 153 2.0 2.0 0.00 0.00 0.00
20260830114940 78 227 0.0 0.0 0.00 0.00 0.00
20260830114440 78 227 0.0 0.0 0.00 0.00 0.00
20260830113441 79 227 0.0 0.0 0.00 0.00 0.00
20260830111440 80 227 0.0 0.0 0.00 0.00 0.00
20260830110440 81 241 0.0 0.0 0.00 0.00 0.00
20260830105440 81 241 0.0 0.0 0.00 0.00 0.00
20260830103940 82 296 2.0 2.0 0.00 0.00 0.00
20260830103440 82 184 3.0 3.0 0.00 0.00 0.00
20260830101940 82 241 2.0 3.0 0.00 0.00 0.00
20260830100440 82 234 2.0 2.0 0.00 0.00 0.00
20260830095941 82 227 1.0 2.0 0.00 0.00 0.00
20260830095441 82 191 1.0 0.0 0.00 0.00 0.00
20260830094940 82 218 1.0 2.0 0.00 0.00 0.00
20260830094441 82 217 0.0 0.0 0.00 0.00 0.00
20260830093441 83 175 0.0 0.0 0.00 0.00 0.00
20260830092941 83 222 1.0 3.0 0.00 0.00 0.00
20260830092441 83 200 1.0 1.0 0.00 0.00 0.00
20260830091441 84 215 1.0 1.0 0.00 0.00 0.00
20260830090941 84 277 2.0 3.0 0.00 0.00 0.00
20260830090441 84 231 2.0 3.0 0.00 0.00 0.00
20260830085941 84 249 1.0 0.0 0.00 0.00 0.00
20260830084941 84 156 1.0 1.0 0.00 0.00 0.00
20260830080941 84 210 2.0 1.0 0.00 0.00 0.00
20260830075941 85 204 2.0 2.0 0.00 0.00 0.00
20260830075441 85 238 0.0 0.0 0.00 0.00 0.00
20260830074941 84 158 0.0 0.0 0.00 0.00 0.00
20260830073441 84 215 1.0 3.0 0.00 0.00 0.00
20260830072941 85 255 1.0 3.0 0.00 0.00 0.00
20260830071441 85 228 2.0 1.0 0.00 0.00 0.00
20260830070941 85 220 1.0 0.0 0.00 0.00 0.00
20260830070441 85 193 0.0 0.0 0.00 0.00 0.00
20260830063941 86 239 1.0 2.0 0.00 0.00 0.00
20260830060441 86 196 1.0 2.0 0.00 0.00 0.00
20260830055941 86 187 1.0 0.0 0.00 0.00 0.00
20260830054441 88 182 2.0 1.0 0.00 0.00 0.00
20260830053941 88 258 0.0 2.0 0.00 0.00 0.00
20260830053441 88 183 3.0 1.0 0.00 0.00 0.00
20260830052441 88 180 1.0 0.0 0.00 0.00 0.00
20260830051941 87 197 3.0 0.0 0.00 0.00 0.00
20260830050941 86 134 1.0 0.0 0.00 0.00 0.00
20260830050441 86 153 0.0 0.0 0.00 0.00 0.00
20260830045942 87 153 0.0 0.0 0.00 0.00 0.00
20260830045442 87 153 0.0 0.0 0.00 0.00 0.00
20260830044942 88 153 0.0 0.0 0.00 0.00 0.00
20260830044442 88 39 0.0 0.0 0.00 0.00 0.00
20260830043942 88 213 0.0 0.0 0.00 0.00 0.00
20260830043442 88 213 0.0 0.0 0.00 0.00 0.00
20260830042942 88 213 0.0 0.0 0.00 0.00 0.00
20260830041942 88 162 1.0 0.0 0.00 0.00 0.00
20260830041442 88 197 0.0 0.0 0.00 0.00 0.00
20260830040942 88 224 0.0 0.0 0.00 0.00 0.00
20260830035942 87 224 0.0 0.0 0.00 0.00 0.00
20260830035442 87 224 0.0 0.0 0.00 0.00 0.00
20260830034942 88 224 0.0 0.0 0.00 0.00 0.00
20260830033442 89 224 0.0 0.0 0.00 0.00 0.00
20260830032942 89 215 0.0 0.0 0.00 0.00 0.00
20260830032442 89 215 0.0 0.0 0.00 0.00 0.00
20260830031942 89 215 0.0 0.0 0.00 0.00 0.00
20260830030942 91 215 0.0 0.0 0.00 0.00 0.00
20260830025942 91 203 0.0 0.0 0.00 0.00 0.00
20260830025442 91 203 0.0 0.0 0.00 0.00 0.00
20260830024942 91 203 0.0 0.0 0.00 0.00 0.00
20260830023441 91 172 0.0 0.0 0.00 0.00 0.00
20260830022941 92 104 0.0 0.0 0.00 0.00 0.00
20260830022441 92 159 0.0 0.0 0.00 0.00 0.00
20260830021442 92 182 0.0 0.0 0.00 0.00 0.00
20260830015441 92 189 0.0 1.0 0.00 0.00 0.00
20260830014941 93 92 0.0 0.0 0.00 0.00 0.00
20260830014441 93 94 1.0 1.0 0.00 0.00 0.00
20260830013942 93 137 0.0 0.0 0.00 0.00 0.00
20260830013442 93 137 0.0 0.0 0.00 0.00 0.00
20260830012942 94 137 0.0 0.0 0.00 0.00 0.00
20260830012442 94 137 0.0 0.0 0.00 0.00 0.00
20260830011942 95 137 0.0 0.0 0.00 0.00 0.00
20260830011442 95 137 0.0 0.0 0.00 0.00 0.00
20260830010942 95 137 0.0 0.0 0.00 0.00 0.00
20260830010442 96 137 0.0 0.0 0.00 0.00 0.00
20260830005442 97 137 0.0 0.0 0.00 0.00 0.00